Location: Buenos Aires
(34.6076°S, 58.4371°W)
Time: 12:54:02
(UTC-03:00)

Envisat - Pass Details

Date: 03 July 2021
Orbit: 764 x 766 km, 98.2° (Epoch: 03 August)

Event Time Altitude Azimuth Distance (km) Brightness Sun altitude
Rises 05:04:27 0° 27° (NNE) 3,219 6.6 -35.6°
Reaches altitude 10° 05:06:47 10° 32° (NNE) 2,301 5.8 -35.1°
Enters shadow 05:09:26 30° 47° (NE) 1,360 4.6 -34.6°
